Time,TemperatureF,DewpointF,PressureIn,WindDirection,WindDirectionDegrees,WindSpeedMPH,WindSpeedGustMPH,Humidity,HourlyPrecipIn,Conditions,Clouds,dailyrainin,SoftwareType,DateUTC
2013-05-02 00:01:00,62.6,59.9,30.01,NE,39,0.0,0.0,91,0.00,RA,,0.00,WeatherDisplay:10.37,2013-05-02 05:01:00,
2013-05-02 00:06:00,62.6,60.2,30.02,NE,39,0.0,0.0,92,0.00,RA,,0.00,WeatherDisplay:10.37,2013-05-02 05:06:00,
2013-05-02 00:11:00,62.5,59.8,30.02,NE,39,0.0,0.0,91,0.00,CLR,,0.00,WeatherDisplay:10.37,2013-05-02 05:11:00,
2013-05-02 00:16:00,62.4,60.0,30.02,NE,39,0.0,0.0,92,0.00,CLR,,0.00,WeatherDisplay:10.37,2013-05-02 05:16:00,
2013-05-02 00:21:00,62.3,59.9,30.02,NE,39,0.0,0.0,92,0.00,CLR,,0.00,WeatherDisplay:10.37,2013-05-02 05:21:00,
2013-05-02 00:26:00,62.3,59.9,30.02,NE,39,0.0,0.0,92,0.00,CLR,,0.00,WeatherDisplay:10.37,2013-05-02 05:26:00,
2013-05-02 00:31:00,62.2,59.8,30.02,NE,39,0.0,0.0,92,0.00,CLR,,0.00,WeatherDisplay:10.37,2013-05-02 05:31:00,
2013-05-02 00:36:00,62.1,59.4,30.02,NE,39,0.0,0.0,91,0.00,CLR,,0.00,WeatherDisplay:10.37,2013-05-02 05:36:00,
2013-05-02 00:41:00,62.1,59.4,30.02,NE,39,0.0,0.0,91,0.00,CLR,,0.00,WeatherDisplay:10.37,2013-05-02 05:41:00,
2013-05-02 00:46:00,62.1,59.7,30.02,NE,39,0.0,0.0,92,0.00,CLR,,0.00,WeatherDisplay:10.37,2013-05-02 05:46:00,
2013-05-02 00:51:00,62.1,59.7,30.02,NE,39,0.0,0.0,92,0.00,CLR,,0.00,WeatherDisplay:10.37,2013-05-02 05:51:00,
2013-05-02 00:56:00,62.1,59.7,30.02,NE,39,0.0,0.0,92,0.00,CLR,,0.00,WeatherDisplay:10.37,2013-05-02 05:56:00,
2013-05-02 01:01:00,62.0,59.3,30.02,NE,39,0.0,0.0,91,0.00,CLR,,0.00,WeatherDisplay:10.37,2013-05-02 06:01:00,
2013-05-02 01:06:00,61.8,59.1,30.02,NE,39,0.0,0.0,91,0.00,CLR,,0.00,WeatherDisplay:10.37,2013-05-02 06:06:00,
2013-05-02 01:11:00,61.8,59.1,30.02,NE,39,0.0,0.0,91,0.00,CLR,,0.00,WeatherDisplay:10.37,2013-05-02 06:11:00,
2013-05-02 01:16:00,61.7,59.4,30.02,NE,39,0.0,0.0,92,0.00,CLR,,0.00,WeatherDisplay:10.37,2013-05-02 06:16:00,
2013-05-02 01:21:00,61.7,59.4,30.02,NE,39,0.0,0.0,92,0.00,CLR,,0.00,WeatherDisplay:10.37,2013-05-02 06:21:00,
2013-05-02 01:26:00,61.7,59.4,30.02,NE,39,0.0,0.0,92,0.00,CLR,,0.00,WeatherDisplay:10.37,2013-05-02 06:26:00,
2013-05-02 01:31:00,61.7,59.4,30.02,NE,39,0.0,0.0,92,0.00,CLR,,0.00,WeatherDisplay:10.37,2013-05-02 06:31:00,
2013-05-02 01:36:00,61.7,59.4,30.02,NE,39,0.0,0.0,92,0.00,CLR,,0.00,WeatherDisplay:10.37,2013-05-02 06:36:00,
2013-05-02 01:41:00,61.7,59.4,30.02,NE,39,0.0,0.0,92,0.00,CLR,,0.00,WeatherDisplay:10.37,2013-05-02 06:41:00,
2013-05-02 01:46:00,61.7,59.4,30.02,NE,39,0.0,0.0,92,0.00,CLR,,0.00,WeatherDisplay:10.37,2013-05-02 06:46:00,
2013-05-02 01:51:00,61.6,58.9,30.02,NE,39,0.0,0.0,91,0.00,CLR,,0.00,WeatherDisplay:10.37,2013-05-02 06:51:00,
2013-05-02 01:56:00,61.5,58.8,30.02,NE,39,0.0,0.0,91,0.00,CLR,,0.00,WeatherDisplay:10.37,2013-05-02 06:56:00,
2013-05-02 02:01:00,61.4,58.7,30.02,NE,39,0.0,0.0,91,0.00,CLR,,0.00,WeatherDisplay:10.37,2013-05-02 07:01:00,
2013-05-02 02:06:00,61.3,58.7,30.02,NE,39,0.0,0.0,91,0.00,CLR,,0.00,WeatherDisplay:10.37,2013-05-02 07:06:00,
2013-05-02 02:11:00,61.3,58.7,30.02,NE,39,0.0,0.0,91,0.00,CLR,,0.00,WeatherDisplay:10.37,2013-05-02 07:11:00,
2013-05-02 02:16:00,61.2,58.6,30.02,NE,39,0.0,0.0,91,0.00,CLR,,0.00,WeatherDisplay:10.37,2013-05-02 07:16:00,
2013-05-02 02:21:00,61.1,58.5,30.01,NE,39,0.0,0.0,91,0.00,CLR,,0.00,WeatherDisplay:10.37,2013-05-02 07:21:00,
2013-05-02 02:27:00,61.1,58.5,30.02,NE,39,0.0,0.0,91,0.00,CLR,,0.00,WeatherDisplay:10.37,2013-05-02 07:27:00,
2013-05-02 02:32:00,61.1,58.5,30.02,NE,39,0.0,0.0,91,0.00,CLR,,0.00,WeatherDisplay:10.37,2013-05-02 07:32:00,
2013-05-02 02:37:00,61.0,58.4,30.01,NE,39,0.0,0.0,91,0.00,CLR,,0.00,WeatherDisplay:10.37,2013-05-02 07:37:00,
2013-05-02 02:42:00,61.0,58.4,30.01,NE,39,0.0,0.0,91,0.00,CLR,,0.00,WeatherDisplay:10.37,2013-05-02 07:42:00,
2013-05-02 02:47:00,61.1,58.5,30.01,NE,39,0.0,0.0,91,0.00,CLR,,0.00,WeatherDisplay:10.37,2013-05-02 07:47:00,
2013-05-02 02:52:00,61.2,58.6,30.01,NE,39,0.0,0.0,91,0.00,CLR,,0.00,WeatherDisplay:10.37,2013-05-02 07:52:00,
2013-05-02 02:57:00,61.2,58.2,30.01,NE,39,0.0,0.0,90,0.00,CLR,,0.00,WeatherDisplay:10.37,2013-05-02 07:57:00,
2013-05-02 03:02:00,61.3,58.3,30.01,NE,39,0.0,0.0,90,0.00,CLR,,0.00,WeatherDisplay:10.37,2013-05-02 08:02:00,
2013-05-02 03:07:00,61.4,58.1,30.01,NE,39,0.0,0.0,89,0.00,CLR,,0.00,WeatherDisplay:10.37,2013-05-02 08:07:00,
2013-05-02 03:12:00,61.5,58.2,30.01,NE,39,0.0,0.0,89,0.00,CLR,,0.00,WeatherDisplay:10.37,2013-05-02 08:12:00,
2013-05-02 03:17:00,61.7,58.1,30.00,NE,39,0.0,0.0,88,0.00,CLR,,0.00,WeatherDisplay:10.37,2013-05-02 08:17:00,
2013-05-02 03:22:00,61.9,58.0,30.00,NE,39,0.0,0.0,87,0.00,CLR,,0.00,WeatherDisplay:10.37,2013-05-02 08:22:00,
2013-05-02 03:27:00,62.1,58.2,30.00,NE,50,0.0,0.0,87,0.00,CLR,,0.00,WeatherDisplay:10.37,2013-05-02 08:27:00,
2013-05-02 03:32:00,62.1,58.2,30.00,NE,50,0.0,0.0,87,0.00,CLR,,0.00,WeatherDisplay:10.37,2013-05-02 08:32:00,
2013-05-02 03:37:00,62.1,57.9,30.01,NE,50,0.0,0.0,86,0.00,CLR,,0.00,WeatherDisplay:10.37,2013-05-02 08:37:00,
2013-05-02 03:42:00,62.0,57.8,30.01,NE,50,0.0,0.0,86,0.00,CLR,,0.00,WeatherDisplay:10.37,2013-05-02 08:42:00,
2013-05-02 03:47:00,61.8,57.9,30.01,NE,50,0.0,0.0,87,0.00,CLR,,0.00,WeatherDisplay:10.37,2013-05-02 08:47:00,
2013-05-02 03:52:00,61.8,57.9,30.01,NE,50,0.0,0.0,87,0.00,CLR,,0.00,WeatherDisplay:10.37,2013-05-02 08:52:00,
2013-05-02 03:57:00,61.8,57.6,30.01,NE,50,0.0,0.0,86,0.00,CLR,,0.00,WeatherDisplay:10.37,2013-05-02 08:57:00,
2013-05-02 04:02:00,61.8,57.6,30.02,ENE,58,0.0,0.0,86,0.00,CLR,,0.00,WeatherDisplay:10.37,2013-05-02 09:02:00,
2013-05-02 04:07:00,61.7,57.5,30.02,ENE,58,0.0,0.0,86,0.00,CLR,,0.00,WeatherDisplay:10.37,2013-05-02 09:07:00,
2013-05-02 04:12:00,61.5,57.3,30.02,ENE,58,0.0,0.0,86,0.00,CLR,,0.00,WeatherDisplay:10.37,2013-05-02 09:12:00,
2013-05-02 04:17:00,61.4,57.2,30.02,ENE,58,0.0,0.0,86,0.00,CLR,,0.00,WeatherDisplay:10.37,2013-05-02 09:17:00,
2013-05-02 04:22:00,61.3,57.1,30.03,ENE,58,0.0,0.0,86,0.00,CLR,,0.00,WeatherDisplay:10.37,2013-05-02 09:22:00,
2013-05-02 04:27:00,61.2,57.0,30.03,ENE,58,0.0,0.0,86,0.00,CLR,,0.00,WeatherDisplay:10.37,2013-05-02 09:27:00,
2013-05-02 04:32:00,61.1,56.9,30.02,ENE,57,0.0,0.0,86,0.00,CLR,,0.00,WeatherDisplay:10.37,2013-05-02 09:32:00,
2013-05-02 04:37:00,61.0,56.8,30.03,ENE,57,0.0,0.0,86,0.00,CLR,,0.00,WeatherDisplay:10.37,2013-05-02 09:37:00,
2013-05-02 04:42:00,60.9,56.7,30.03,ENE,57,0.0,0.0,86,0.00,CLR,,0.00,WeatherDisplay:10.37,2013-05-02 09:42:00,
2013-05-02 04:47:00,60.8,56.3,30.03,ESE,103,0.0,0.0,85,0.00,CLR,,0.00,WeatherDisplay:10.37,2013-05-02 09:47:00,
2013-05-02 04:52:00,60.8,56.3,30.03,SSW,211,0.0,0.0,85,0.00,CLR,,0.00,WeatherDisplay:10.37,2013-05-02 09:52:00,
2013-05-02 04:57:00,60.7,56.2,30.03,SW,224,0.0,0.0,85,0.00,CLR,,0.00,WeatherDisplay:10.37,2013-05-02 09:57:00,
2013-05-02 05:02:00,60.6,56.1,30.03,SW,224,0.0,0.0,85,0.00,CLR,,0.00,WeatherDisplay:10.37,2013-05-02 10:02:00,
2013-05-02 05:07:00,60.6,56.1,30.03,SW,224,0.0,0.0,85,0.00,CLR,,0.00,WeatherDisplay:10.37,2013-05-02 10:07:00,
2013-05-02 05:12:00,60.6,56.1,30.03,SW,224,1.1,1.1,85,0.00,CLR,,0.00,WeatherDisplay:10.37,2013-05-02 10:12:00,
2013-05-02 05:17:00,60.5,56.0,30.03,SSW,209,1.1,1.1,85,0.00,CLR,,0.00,WeatherDisplay:10.37,2013-05-02 10:17:00,
2013-05-02 05:22:00,60.4,55.9,30.04,SSW,209,0.0,0.0,85,0.00,CLR,,0.00,WeatherDisplay:10.37,2013-05-02 10:22:00,
2013-05-02 05:27:00,60.4,55.9,30.04,SSW,209,0.0,0.0,85,0.00,CLR,,0.00,WeatherDisplay:10.37,2013-05-02 10:27:00,
2013-05-02 05:32:00,60.3,55.8,30.04,SSW,209,1.1,1.1,85,0.00,CLR,,0.00,WeatherDisplay:10.37,2013-05-02 10:32:00,
2013-05-02 05:37:00,60.2,55.7,30.04,SSW,212,0.0,0.0,85,0.00,CLR,,0.00,WeatherDisplay:10.37,2013-05-02 10:37:00,
2013-05-02 05:42:00,60.2,55.7,30.04,SSW,212,0.0,0.0,85,0.00,CLR,,0.00,WeatherDisplay:10.37,2013-05-02 10:42:00,
2013-05-02 05:47:00,60.1,55.9,30.05,SSW,212,0.0,0.0,86,0.00,CLR,,0.00,WeatherDisplay:10.37,2013-05-02 10:47:00,
2013-05-02 05:52:00,60.0,55.8,30.05,SSW,212,0.0,0.0,86,0.00,CLR,,0.00,WeatherDisplay:10.37,2013-05-02 10:52:00,
2013-05-02 05:57:00,60.0,55.8,30.05,SSW,212,0.0,0.0,86,0.00,CLR,,0.00,WeatherDisplay:10.37,2013-05-02 10:57:00,
2013-05-02 06:02:00,60.0,55.8,30.05,SSE,152,0.0,0.0,86,0.00,CLR,,0.00,WeatherDisplay:10.37,2013-05-02 11:02:00,
2013-05-02 06:07:00,60.2,56.0,30.05,SSE,152,0.0,0.0,86,0.00,CLR,,0.00,WeatherDisplay:10.37,2013-05-02 11:07:00,
2013-05-02 06:12:00,60.3,56.1,30.06,SSE,152,0.0,0.0,86,0.00,CLR,,0.00,WeatherDisplay:10.37,2013-05-02 11:12:00,
2013-05-02 06:17:00,60.3,55.8,30.06,SW,216,2.3,2.3,85,0.00,CLR,,0.00,WeatherDisplay:10.37,2013-05-02 11:17:00,
2013-05-02 06:22:00,60.4,55.9,30.06,SW,216,0.0,0.0,85,0.00,CLR,,0.00,WeatherDisplay:10.37,2013-05-02 11:22:00,
2013-05-02 06:27:00,60.5,56.3,30.06,SW,216,0.0,0.0,86,0.00,CLR,,0.00,WeatherDisplay:10.37,2013-05-02 11:27:00,
2013-05-02 06:32:00,60.5,56.0,30.06,SW,216,0.0,0.0,85,0.00,CLR,,0.00,WeatherDisplay:10.37,2013-05-02 11:32:00,
2013-05-02 06:37:00,60.5,56.0,30.06,SW,216,0.0,0.0,85,0.00,CLR,,0.00,WeatherDisplay:10.37,2013-05-02 11:37:00,
2013-05-02 06:42:00,60.4,55.9,30.06,SW,216,0.0,0.0,85,0.00,CLR,,0.00,WeatherDisplay:10.37,2013-05-02 11:42:00,
2013-05-02 06:47:00,60.5,56.0,30.06,SW,216,0.0,0.0,85,0.00,CLR,,0.00,WeatherDisplay:10.37,2013-05-02 11:47:00,
2013-05-02 06:52:00,60.5,56.0,30.07,SW,216,0.0,0.0,85,0.00,CLR,,0.00,WeatherDisplay:10.37,2013-05-02 11:52:00,
2013-05-02 06:57:00,60.6,56.1,30.07,SW,216,0.0,0.0,85,0.00,CLR,,0.00,WeatherDisplay:10.37,2013-05-02 11:57:00,
2013-05-02 07:02:00,60.8,56.3,30.07,SW,216,0.0,0.0,85,0.00,CLR,,0.00,WeatherDisplay:10.37,2013-05-02 12:02:00,
2013-05-02 07:07:00,61.1,56.9,30.08,SW,216,0.0,0.0,86,0.00,CLR,,0.00,WeatherDisplay:10.37,2013-05-02 12:07:00,
2013-05-02 07:12:00,61.3,56.8,30.07,South,183,0.0,0.0,85,0.00,CLR,,0.00,WeatherDisplay:10.37,2013-05-02 12:12:00,
2013-05-02 07:17:00,61.6,57.4,30.08,South,183,0.0,0.0,86,0.00,CLR,,0.00,WeatherDisplay:10.37,2013-05-02 12:17:00,
2013-05-02 07:22:00,61.9,57.7,30.08,South,183,0.0,0.0,86,0.00,CLR,,0.00,WeatherDisplay:10.37,2013-05-02 12:22:00,
2013-05-02 07:27:00,61.9,57.3,30.08,South,183,0.0,0.0,85,0.00,CLR,,0.00,WeatherDisplay:10.37,2013-05-02 12:27:00,
2013-05-02 07:32:00,62.0,57.1,30.08,South,183,0.0,0.0,84,0.00,CLR,,0.00,WeatherDisplay:10.37,2013-05-02 12:32:00,
2013-05-02 07:37:00,62.2,57.3,30.08,South,173,0.0,0.0,84,0.00,CLR,,0.00,WeatherDisplay:10.37,2013-05-02 12:37:00,
2013-05-02 07:42:00,62.5,57.3,30.08,South,173,0.0,0.0,83,0.00,CLR,,0.00,WeatherDisplay:10.37,2013-05-02 12:42:00,
2013-05-02 07:47:00,62.7,57.5,30.08,South,173,0.0,0.0,83,0.00,CLR,,0.00,WeatherDisplay:10.37,2013-05-02 12:47:00,
2013-05-02 07:52:00,62.9,57.7,30.08,South,173,0.0,0.0,83,0.00,CLR,,0.00,WeatherDisplay:10.37,2013-05-02 12:52:00,
2013-05-02 07:57:00,63.1,57.9,30.08,South,185,0.0,0.0,83,0.00,CLR,,0.00,WeatherDisplay:10.37,2013-05-02 12:57:00,
2013-05-02 08:02:00,63.3,57.7,30.09,South,185,0.0,0.0,82,0.00,CLR,,0.00,WeatherDisplay:10.37,2013-05-02 13:02:00,
2013-05-02 08:07:00,63.7,58.4,30.09,SSE,155,0.0,0.0,83,0.00,CLR,,0.00,WeatherDisplay:10.37,2013-05-02 13:07:00,
2013-05-02 08:12:00,64.0,58.7,30.09,SSE,155,0.0,0.0,83,0.00,CLR,,0.00,WeatherDisplay:10.37,2013-05-02 13:12:00,
2013-05-02 08:17:00,64.3,58.3,30.09,ENE,74,0.0,0.0,81,0.00,CLR,,0.00,WeatherDisplay:10.37,2013-05-02 13:17:00,
2013-05-02 08:22:00,64.6,58.6,30.09,ENE,74,0.0,0.0,81,0.00,CLR,,0.00,WeatherDisplay:10.37,2013-05-02 13:22:00,
2013-05-02 08:27:00,64.8,58.8,30.09,ENE,78,0.0,0.0,81,0.00,CLR,,0.00,WeatherDisplay:10.37,2013-05-02 13:27:00,
2013-05-02 08:32:00,65.0,58.7,30.09,East,80,2.3,2.3,80,0.00,CLR,,0.00,WeatherDisplay:10.37,2013-05-02 13:32:00,
2013-05-02 08:37:00,65.5,59.5,30.09,East,80,0.0,0.0,81,0.00,CLR,,0.00,WeatherDisplay:10.37,2013-05-02 13:37:00,
2013-05-02 08:42:00,65.8,59.5,30.09,WSW,238,0.0,0.0,80,0.00,CLR,,0.00,WeatherDisplay:10.37,2013-05-02 13:42:00,
2013-05-02 08:47:00,66.2,59.8,30.09,ESE,109,1.1,1.1,80,0.00,CLR,,0.00,WeatherDisplay:10.37,2013-05-02 13:47:00,
2013-05-02 08:52:00,66.7,60.0,30.09,ESE,118,0.0,0.0,79,0.00,CLR,,0.00,WeatherDisplay:10.37,2013-05-02 13:52:00,
2013-05-02 08:57:00,67.1,59.3,30.09,ENE,74,2.3,2.3,76,0.00,CLR,,0.00,WeatherDisplay:10.37,2013-05-02 13:57:00,
2013-05-02 09:02:00,67.7,58.7,30.09,ENE,74,1.1,1.1,73,0.00,CLR,,0.00,WeatherDisplay:10.37,2013-05-02 14:02:00,
2013-05-02 09:07:00,68.2,60.0,30.09,East,91,1.1,1.1,75,0.00,CLR,,0.00,WeatherDisplay:10.37,2013-05-02 14:07:00,
2013-05-02 09:12:00,68.7,59.3,30.09,East,98,6.9,6.9,72,0.00,CLR,,0.00,WeatherDisplay:10.37,2013-05-02 14:12:00,
2013-05-02 09:17:00,69.2,60.2,30.09,SW,222,2.3,0.0,73,0.00,CLR,,0.00,WeatherDisplay:10.37,2013-05-02 14:17:00,
2013-05-02 09:22:00,69.5,60.1,30.09,WSW,239,2.3,2.3,72,0.00,CLR,,0.00,WeatherDisplay:10.37,2013-05-02 14:22:00,
2013-05-02 09:27:00,69.6,59.4,30.09,SW,215,2.0,2.0,70,0.00,CLR,,0.00,WeatherDisplay:10.37,2013-05-02 14:27:00,
2013-05-02 09:32:00,69.6,59.8,30.09,South,173,0.0,0.0,71,0.00,CLR,,0.00,WeatherDisplay:10.37,2013-05-02 14:32:00,
2013-05-02 09:37:00,69.8,59.6,30.09,ESE,117,2.0,2.0,70,0.00,CLR,,0.00,WeatherDisplay:10.37,2013-05-02 14:37:00,
2013-05-02 09:42:00,70.2,59.1,30.09,North,10,1.1,1.1,68,0.00,CLR,,0.00,WeatherDisplay:10.37,2013-05-02 14:42:00,
2013-05-02 09:47:00,70.5,59.4,30.09,East,91,3.5,3.5,68,0.00,CLR,,0.00,WeatherDisplay:10.37,2013-05-02 14:47:00,
2013-05-02 09:52:00,71.0,59.9,30.09,SW,234,2.3,2.3,68,0.00,CLR,,0.00,WeatherDisplay:10.37,2013-05-02 14:52:00,
2013-05-02 09:57:00,70.9,60.2,30.09,ENE,74,3.5,3.5,69,0.00,CLR,,0.00,WeatherDisplay:10.37,2013-05-02 14:57:00,
2013-05-02 10:02:00,70.7,59.2,30.09,South,186,5.8,5.8,67,0.00,CLR,,0.00,WeatherDisplay:10.37,2013-05-02 15:02:00,
2013-05-02 10:07:00,70.3,59.6,30.09,SW,231,2.3,2.3,69,0.00,CLR,,0.00,WeatherDisplay:10.37,2013-05-02 15:07:00,
2013-05-02 10:12:00,69.9,59.3,30.09,SSW,194,1.0,1.0,69,0.00,CLR,,0.00,WeatherDisplay:10.37,2013-05-02 15:12:00,
2013-05-02 10:17:00,69.7,59.9,30.09,WSW,258,1.1,0.0,71,0.00,CLR,,0.00,WeatherDisplay:10.37,2013-05-02 15:17:00,
2013-05-02 10:22:00,69.6,60.2,30.09,SW,232,2.3,2.3,72,0.00,CLR,,0.00,WeatherDisplay:10.37,2013-05-02 15:22:00,
2013-05-02 10:27:00,69.5,58.9,30.09,SW,220,1.1,0.0,69,0.00,CLR,,0.00,WeatherDisplay:10.37,2013-05-02 15:27:00,
2013-05-02 10:32:00,69.8,59.6,30.09,SW,221,1.1,1.1,70,0.00,CLR,,0.00,WeatherDisplay:10.37,2013-05-02 15:32:00,
2013-05-02 10:37:00,70.2,59.6,30.09,SE,126,1.1,1.1,69,0.00,CLR,,0.00,WeatherDisplay:10.37,2013-05-02 15:37:00,
2013-05-02 10:42:00,70.6,59.5,30.09,East,93,1.1,1.1,68,0.00,CLR,,0.00,WeatherDisplay:10.37,2013-05-02 15:42:00,
2013-05-02 10:47:00,70.8,60.1,30.09,ENE,57,0.0,0.0,69,0.00,CLR,,0.00,WeatherDisplay:10.37,2013-05-02 15:47:00,
2013-05-02 10:52:00,71.0,59.1,30.09,ENE,68,1.1,1.1,66,0.00,CLR,,0.00,WeatherDisplay:10.37,2013-05-02 15:52:00,
2013-05-02 10:57:00,71.5,62.0,30.09,West,263,2.3,2.3,72,0.00,CLR,,0.00,WeatherDisplay:10.37,2013-05-02 15:57:00,
2013-05-02 11:02:00,72.3,63.2,30.08,WSW,240,2.3,2.3,73,0.00,CLR,,0.00,WeatherDisplay:10.37,2013-05-02 16:02:00,
2013-05-02 11:07:00,73.2,61.6,30.08,SE,127,2.3,2.3,67,0.00,CLR,,0.00,WeatherDisplay:10.37,2013-05-02 16:07:00,
2013-05-02 11:12:00,73.9,62.7,30.08,West,261,1.1,1.1,68,0.00,CLR,,0.00,WeatherDisplay:10.37,2013-05-02 16:12:00,
2013-05-02 11:17:00,73.9,61.8,30.08,West,261,0.0,0.0,66,0.00,CLR,,0.00,WeatherDisplay:10.37,2013-05-02 16:17:00,
2013-05-02 11:22:00,73.5,59.7,30.08,ESE,103,0.0,0.0,62,0.00,CLR,,0.00,WeatherDisplay:10.37,2013-05-02 16:22:00,
2013-05-02 11:27:00,73.3,61.7,30.08,WSW,253,2.3,2.3,67,0.00,CLR,,0.00,WeatherDisplay:10.37,2013-05-02 16:27:00,
2013-05-02 11:32:00,73.1,61.9,30.08,WSW,253,2.3,2.3,68,0.00,CLR,,0.00,WeatherDisplay:10.37,2013-05-02 16:32:00,
2013-05-02 11:37:00,73.1,61.1,30.08,WSW,253,1.1,0.0,66,0.00,CLR,,0.00,WeatherDisplay:10.37,2013-05-02 16:37:00,
2013-05-02 11:42:00,73.1,60.6,30.08,WSW,252,1.1,0.0,65,0.00,CLR,,0.00,WeatherDisplay:10.37,2013-05-02 16:42:00,
2013-05-02 11:47:00,72.8,62.0,30.08,WSW,238,3.5,3.5,69,0.00,CLR,,0.00,WeatherDisplay:10.37,2013-05-02 16:47:00,
2013-05-02 11:52:00,72.4,62.1,30.08,WSW,248,3.5,3.5,70,0.00,CLR,,0.00,WeatherDisplay:10.37,2013-05-02 16:52:00,
2013-05-02 11:57:00,72.1,61.4,30.08,SW,225,2.3,2.3,69,0.00,CLR,,0.00,WeatherDisplay:10.37,2013-05-02 16:57:00,
2013-05-02 12:02:00,71.8,61.9,30.08,SW,230,3.5,3.5,71,0.00,CLR,,0.00,WeatherDisplay:10.37,2013-05-02 17:02:00,
2013-05-02 12:07:00,71.7,61.8,30.08,WSW,242,1.1,1.1,71,0.00,CLR,,0.00,WeatherDisplay:10.37,2013-05-02 17:07:00,
2013-05-02 12:13:00,71.3,61.0,30.08,SSW,213,2.3,2.3,70,0.00,CLR,,0.00,WeatherDisplay:10.37,2013-05-02 17:13:00,
2013-05-02 12:18:00,70.7,60.0,30.07,SSW,208,3.5,3.5,69,0.00,CLR,,0.00,WeatherDisplay:10.37,2013-05-02 17:18:00,
2013-05-02 12:23:00,70.6,60.7,30.07,WSW,246,3.5,3.5,71,0.00,CLR,,0.00,WeatherDisplay:10.37,2013-05-02 17:23:00,
2013-05-02 12:28:00,70.3,60.8,30.07,WSW,242,2.3,2.3,72,0.00,CLR,,0.00,WeatherDisplay:10.37,2013-05-02 17:28:00,
2013-05-02 12:33:00,70.4,60.9,30.07,WSW,244,1.1,1.1,72,0.00,CLR,,0.00,WeatherDisplay:10.37,2013-05-02 17:33:00,
2013-05-02 12:38:00,70.3,61.2,30.07,WSW,244,0.0,0.0,73,0.00,CLR,,0.00,WeatherDisplay:10.37,2013-05-02 17:38:00,
2013-05-02 12:43:00,70.4,60.9,30.07,WSW,244,0.0,0.1,72,0.00,CLR,,0.00,WeatherDisplay:10.37,2013-05-02 17:43:00,
2013-05-02 12:48:00,70.4,61.3,30.07,WSW,244,0.0,0.0,73,0.00,CLR,,0.00,WeatherDisplay:10.37,2013-05-02 17:48:00,
2013-05-02 12:53:00,70.6,60.7,30.06,ESE,115,2.3,0.0,71,0.00,CLR,,0.00,WeatherDisplay:10.37,2013-05-02 17:53:00,
2013-05-02 12:58:00,70.6,60.3,30.06,ESE,112,0.0,0.4,70,0.00,CLR,,0.00,WeatherDisplay:10.37,2013-05-02 17:58:00,
2013-05-02 13:03:00,70.6,59.9,30.06,ESE,103,0.0,0.1,69,0.00,CLR,,0.00,WeatherDisplay:10.37,2013-05-02 18:03:00,
2013-05-02 13:08:00,70.6,59.9,30.06,East,98,1.1,1.1,69,0.00,CLR,,0.00,WeatherDisplay:10.37,2013-05-02 18:08:00,
2013-05-02 13:13:00,70.6,59.9,30.06,ESE,118,0.0,0.0,69,0.00,CLR,,0.00,WeatherDisplay:10.37,2013-05-02 18:13:00,
2013-05-02 13:18:00,70.8,60.1,30.06,East,90,0.0,0.0,69,0.00,CLR,,0.00,WeatherDisplay:10.37,2013-05-02 18:18:00,
2013-05-02 13:23:00,70.8,59.7,30.06,ESE,110,3.5,3.5,68,0.00,CLR,,0.00,WeatherDisplay:10.37,2013-05-02 18:23:00,
2013-05-02 13:28:00,70.9,59.4,30.06,ESE,111,1.1,1.1,67,0.00,CLR,,0.00,WeatherDisplay:10.37,2013-05-02 18:28:00,
2013-05-02 13:33:00,70.8,59.3,30.06,East,100,1.1,1.1,67,0.00,CLR,,0.00,WeatherDisplay:10.37,2013-05-02 18:33:00,
2013-05-02 13:38:00,70.8,60.1,30.06,East,100,0.0,0.0,69,0.00,CLR,,0.00,WeatherDisplay:10.37,2013-05-02 18:38:00,
2013-05-02 13:43:00,70.8,59.7,30.06,East,100,0.0,0.0,68,0.00,CLR,,0.00,WeatherDisplay:10.37,2013-05-02 18:43:00,
2013-05-02 13:48:00,70.9,60.6,30.06,East,100,0.0,0.0,70,0.00,CLR,,0.00,WeatherDisplay:10.37,2013-05-02 18:48:00,
2013-05-02 13:53:00,71.1,60.0,30.06,East,79,1.1,1.1,68,0.00,CLR,,0.00,WeatherDisplay:10.37,2013-05-02 18:53:00,
2013-05-02 13:58:00,71.4,60.7,30.05,East,86,0.0,0.0,69,0.00,CLR,,0.00,WeatherDisplay:10.37,2013-05-02 18:58:00,
2013-05-02 14:03:00,71.7,60.6,30.05,ESE,104,2.3,2.3,68,0.00,CLR,,0.00,WeatherDisplay:10.37,2013-05-02 19:03:00,
2013-05-02 14:08:00,71.9,60.3,30.05,East,80,3.5,3.5,67,0.00,CLR,,0.00,WeatherDisplay:10.37,2013-05-02 19:08:00,
2013-05-02 14:13:00,71.9,59.5,30.05,East,96,0.0,0.0,65,0.00,CLR,,0.00,WeatherDisplay:10.37,2013-05-02 19:13:00,
2013-05-02 14:18:00,72.0,59.6,30.05,ESE,109,0.0,0.0,65,0.00,CLR,,0.00,WeatherDisplay:10.37,2013-05-02 19:18:00,
2013-05-02 14:23:00,72.1,59.7,30.04,ESE,107,0.0,0.0,65,0.00,CLR,,0.00,WeatherDisplay:10.37,2013-05-02 19:23:00,
2013-05-02 14:28:00,72.2,59.8,30.04,East,93,1.1,1.1,65,0.00,CLR,,0.00,WeatherDisplay:10.37,2013-05-02 19:28:00,
2013-05-02 14:33:00,72.3,60.3,30.04,East,93,0.0,0.0,66,0.00,CLR,,0.00,WeatherDisplay:10.37,2013-05-02 19:33:00,
2013-05-02 14:38:00,72.6,61.8,30.04,SW,226,2.3,2.3,69,0.00,CLR,,0.00,WeatherDisplay:10.37,2013-05-02 19:38:00,
2013-05-02 14:43:00,72.4,60.0,30.03,WSW,250,2.3,2.3,65,0.00,CLR,,0.00,WeatherDisplay:10.37,2013-05-02 19:43:00,
2013-05-02 14:48:00,72.1,58.8,30.03,WSW,250,0.0,0.0,63,0.00,CLR,,0.00,WeatherDisplay:10.37,2013-05-02 19:48:00,
2013-05-02 14:53:00,72.3,61.1,30.03,WSW,250,0.0,0.0,68,0.00,CLR,,0.00,WeatherDisplay:10.37,2013-05-02 19:53:00,
2013-05-02 14:58:00,72.3,59.0,30.03,WSW,250,0.0,0.0,63,0.00,CLR,,0.00,WeatherDisplay:10.37,2013-05-02 19:58:00,
2013-05-02 15:03:00,72.4,58.2,30.03,WSW,250,0.0,0.0,61,0.00,CLR,,0.00,WeatherDisplay:10.37,2013-05-02 20:03:00,
2013-05-02 15:08:00,72.5,58.7,30.02,WSW,250,0.0,0.0,62,0.00,CLR,,0.00,WeatherDisplay:10.37,2013-05-02 20:08:00,
2013-05-02 15:13:00,72.6,60.2,30.02,WSW,250,0.0,0.0,65,0.00,CLR,,0.00,WeatherDisplay:10.37,2013-05-02 20:13:00,
2013-05-02 15:18:00,72.6,60.6,30.02,ESE,116,1.1,1.1,66,0.00,CLR,,0.00,WeatherDisplay:10.37,2013-05-02 20:18:00,
2013-05-02 15:23:00,72.5,59.6,30.02,ESE,116,0.0,0.0,64,0.00,CLR,,0.00,WeatherDisplay:10.37,2013-05-02 20:23:00,
2013-05-02 15:28:00,72.5,60.5,30.02,ESE,109,0.0,0.0,66,0.00,CLR,,0.00,WeatherDisplay:10.37,2013-05-02 20:28:00,
2013-05-02 15:33:00,72.4,60.4,30.01,ESE,119,1.1,1.1,66,0.00,CLR,,0.00,WeatherDisplay:10.37,2013-05-02 20:33:00,
2013-05-02 15:38:00,72.4,60.4,30.01,SE,126,3.5,3.5,66,0.00,CLR,,0.00,WeatherDisplay:10.37,2013-05-02 20:38:00,
2013-05-02 15:43:00,72.3,59.9,30.01,ESE,123,1.1,1.1,65,0.00,CLR,,0.00,WeatherDisplay:10.37,2013-05-02 20:43:00,
2013-05-02 15:48:00,72.3,60.7,30.01,ESE,105,1.1,1.1,67,0.00,CLR,,0.00,WeatherDisplay:10.37,2013-05-02 20:48:00,
2013-05-02 15:53:00,72.4,60.0,30.01,ESE,109,2.3,2.3,65,0.00,CLR,,0.00,WeatherDisplay:10.37,2013-05-02 20:53:00,
2013-05-02 15:58:00,72.5,60.1,30.01,ESE,117,3.5,3.5,65,0.00,CLR,,0.00,WeatherDisplay:10.37,2013-05-02 20:58:00,
2013-05-02 16:03:00,72.4,59.5,30.01,ESE,109,3.5,3.5,64,0.00,CLR,,0.00,WeatherDisplay:10.37,2013-05-02 21:03:00,
2013-05-02 16:08:00,72.3,59.4,30.00,ESE,115,0.0,0.0,64,0.00,CLR,,0.00,WeatherDisplay:10.37,2013-05-02 21:08:00,
2013-05-02 16:13:00,72.4,60.4,30.00,East,101,2.3,0.0,66,0.00,CLR,,0.00,WeatherDisplay:10.37,2013-05-02 21:13:00,
2013-05-02 16:18:00,72.4,59.5,30.00,East,85,1.1,0.0,64,0.00,CLR,,0.00,WeatherDisplay:10.37,2013-05-02 21:18:00,
2013-05-02 16:23:00,72.4,60.0,30.00,ESE,114,0.0,0.0,65,0.00,CLR,,0.00,WeatherDisplay:10.37,2013-05-02 21:23:00,
2013-05-02 16:28:00,72.4,60.0,30.00,ESE,103,2.3,2.3,65,0.00,CLR,,0.00,WeatherDisplay:10.37,2013-05-02 21:28:00,
2013-05-02 16:33:00,72.4,60.0,30.00,East,95,1.1,0.0,65,0.00,CLR,,0.00,WeatherDisplay:10.37,2013-05-02 21:33:00,
2013-05-02 16:38:00,72.4,60.0,30.00,East,96,0.0,0.0,65,0.00,CLR,,0.00,WeatherDisplay:10.37,2013-05-02 21:38:00,
2013-05-02 16:43:00,72.4,59.1,30.00,East,98,1.1,0.0,63,0.00,CLR,,0.00,WeatherDisplay:10.37,2013-05-02 21:43:00,
2013-05-02 16:48:00,72.3,59.4,29.99,East,98,0.0,0.0,64,0.00,CLR,,0.00,WeatherDisplay:10.37,2013-05-02 21:48:00,
2013-05-02 16:53:00,72.2,59.3,29.99,East,101,0.0,0.1,64,0.00,CLR,,0.00,WeatherDisplay:10.37,2013-05-02 21:53:00,
2013-05-02 16:58:00,72.2,59.3,29.99,ESE,115,1.1,1.1,64,0.00,CLR,,0.00,WeatherDisplay:10.37,2013-05-02 21:58:00,
2013-05-02 17:03:00,72.1,59.7,29.99,ESE,109,1.0,1.0,65,0.00,CLR,,0.00,WeatherDisplay:10.37,2013-05-02 22:03:00,
2013-05-02 17:08:00,72.0,59.6,29.99,ESE,109,2.3,2.3,65,0.00,CLR,,0.00,WeatherDisplay:10.37,2013-05-02 22:08:00,
2013-05-02 17:13:00,71.9,59.9,29.99,ESE,116,1.1,1.1,66,0.00,CLR,,0.00,WeatherDisplay:10.37,2013-05-02 22:13:00,
2013-05-02 17:18:00,71.9,59.9,29.99,ESE,116,0.0,0.0,66,0.00,CLR,,0.00,WeatherDisplay:10.37,2013-05-02 22:18:00,
2013-05-02 17:23:00,71.8,59.4,29.99,ESE,116,0.0,0.0,65,0.00,CLR,,0.00,WeatherDisplay:10.37,2013-05-02 22:23:00,
2013-05-02 17:28:00,71.7,58.9,29.99,ESE,110,0.0,0.2,64,0.00,CLR,,0.00,WeatherDisplay:10.37,2013-05-02 22:28:00,
2013-05-02 17:33:00,71.6,59.2,29.99,ESE,110,0.0,0.0,65,0.00,CLR,,0.00,WeatherDisplay:10.37,2013-05-02 22:33:00,
2013-05-02 17:38:00,71.6,60.1,29.99,ESE,110,0.0,0.0,67,0.00,CLR,,0.00,WeatherDisplay:10.37,2013-05-02 22:38:00,
2013-05-02 17:43:00,71.6,60.5,29.99,ESE,110,0.0,0.0,68,0.00,CLR,,0.00,WeatherDisplay:10.37,2013-05-02 22:43:00,
2013-05-02 17:48:00,71.5,59.5,29.99,ESE,110,1.1,0.0,66,0.00,CLR,,0.00,WeatherDisplay:10.37,2013-05-02 22:48:00,
2013-05-02 17:53:00,71.5,60.4,29.99,ESE,110,0.0,0.0,68,0.00,CLR,,0.00,WeatherDisplay:10.37,2013-05-02 22:53:00,
2013-05-02 17:59:00,71.5,60.4,29.99,ESE,110,0.0,0.0,68,0.00,CLR,,0.00,WeatherDisplay:10.37,2013-05-02 22:59:00,
2013-05-02 18:04:00,71.5,60.8,29.99,ESE,110,0.0,0.0,69,0.00,CLR,,0.00,WeatherDisplay:10.37,2013-05-02 23:04:00,
2013-05-02 18:09:00,71.4,60.3,29.99,ESE,110,0.0,0.0,68,0.00,CLR,,0.00,WeatherDisplay:10.37,2013-05-02 23:09:00,
2013-05-02 18:14:00,71.3,60.2,29.99,ESE,110,0.0,0.0,68,0.00,CLR,,0.00,WeatherDisplay:10.37,2013-05-02 23:14:00,
2013-05-02 18:19:00,71.3,59.8,29.99,ESE,110,0.0,0.0,67,0.00,CLR,,0.00,WeatherDisplay:10.37,2013-05-02 23:19:00,
2013-05-02 18:24:00,71.3,61.0,29.99,ESE,110,0.0,0.0,70,0.00,CLR,,0.00,WeatherDisplay:10.37,2013-05-02 23:24:00,
2013-05-02 18:29:00,71.3,62.6,29.99,ESE,110,0.0,0.0,74,0.00,CLR,,0.00,WeatherDisplay:10.37,2013-05-02 23:29:00,
2013-05-02 18:34:00,71.1,62.4,29.99,ESE,110,0.0,0.0,74,0.00,CLR,,0.00,WeatherDisplay:10.37,2013-05-02 23:34:00,
2013-05-02 18:39:00,70.8,60.9,29.99,ESE,110,0.0,0.0,71,0.00,CLR,,0.00,WeatherDisplay:10.37,2013-05-02 23:39:00,
2013-05-02 18:44:00,70.6,61.1,29.99,ESE,110,0.0,0.0,72,0.00,CLR,,0.00,WeatherDisplay:10.37,2013-05-02 23:44:00,
2013-05-02 18:49:00,70.4,62.1,29.99,ESE,110,0.0,0.0,75,0.00,CLR,,0.00,WeatherDisplay:10.37,2013-05-02 23:49:00,
2013-05-02 18:54:00,70.2,62.6,29.99,ESE,110,0.0,0.0,77,0.00,CLR,,0.00,WeatherDisplay:10.37,2013-05-02 23:54:00,
2013-05-02 18:59:00,69.8,62.3,29.99,ESE,110,0.0,0.0,77,0.00,CLR,,0.00,WeatherDisplay:10.37,2013-05-02 23:59:00,
2013-05-02 19:04:00,69.5,62.3,29.99,ENE,76,0.0,0.0,78,0.00,CLR,,0.00,WeatherDisplay:10.37,2013-05-03 00:04:00,
2013-05-02 19:09:00,69.0,61.5,29.99,NE,48,0.0,0.0,77,0.00,CLR,,0.00,WeatherDisplay:10.37,2013-05-03 00:09:00,
2013-05-02 19:14:00,68.8,62.0,29.99,NNW,348,1.1,1.1,79,0.00,CLR,,0.00,WeatherDisplay:10.37,2013-05-03 00:14:00,
2013-05-02 19:19:00,68.4,61.3,29.99,NNW,327,2.0,2.0,78,0.00,CLR,,0.00,WeatherDisplay:10.37,2013-05-03 00:19:00,
2013-05-02 19:24:00,68.2,60.7,29.99,NNW,327,0.0,0.0,77,0.00,CLR,,0.00,WeatherDisplay:10.37,2013-05-03 00:24:00,
2013-05-02 19:29:00,68.0,60.5,29.99,NNW,327,0.0,0.0,77,0.00,CLR,,0.00,WeatherDisplay:10.37,2013-05-03 00:29:00,
2013-05-02 19:34:00,67.8,60.3,29.99,NNW,327,1.1,0.0,77,0.00,CLR,,0.00,WeatherDisplay:10.37,2013-05-03 00:34:00,
2013-05-02 19:39:00,67.7,60.2,29.99,NNW,327,0.0,0.0,77,0.00,CLR,,0.00,WeatherDisplay:10.37,2013-05-03 00:39:00,
2013-05-02 19:44:00,67.7,60.2,29.99,NNW,327,0.0,0.0,77,0.00,CLR,,0.00,WeatherDisplay:10.37,2013-05-03 00:44:00,
2013-05-02 19:49:00,67.6,60.1,29.99,NNW,327,0.0,0.0,77,0.00,CLR,,0.00,WeatherDisplay:10.37,2013-05-03 00:49:00,
2013-05-02 19:54:00,67.5,60.4,29.99,NNW,327,2.0,2.0,78,0.00,CLR,,0.00,WeatherDisplay:10.37,2013-05-03 00:54:00,
2013-05-02 19:59:00,67.4,60.7,29.99,NNW,327,1.1,1.1,79,0.00,CLR,,0.00,WeatherDisplay:10.37,2013-05-03 00:59:00,
2013-05-02 20:04:00,67.3,61.6,29.99,WSW,245,3.5,3.5,82,0.01,RA,,0.01,WeatherDisplay:10.37,2013-05-03 01:04:00,
2013-05-02 20:09:00,66.8,61.1,29.99,West,263,3.5,3.5,82,0.01,RA,,0.01,WeatherDisplay:10.37,2013-05-03 01:09:00,
2013-05-02 20:14:00,66.1,60.8,29.99,WNW,292,3.5,3.5,83,0.02,RA,,0.02,WeatherDisplay:10.37,2013-05-03 01:14:00,
2013-05-02 20:19:00,65.7,60.7,29.99,West,280,3.5,3.5,84,0.02,RA,,0.02,WeatherDisplay:10.37,2013-05-03 01:19:00,
2013-05-02 20:24:00,65.2,60.6,29.98,NW,306,3.5,3.5,85,0.02,CLR,,0.02,WeatherDisplay:10.37,2013-05-03 01:24:00,
2013-05-02 20:29:00,65.0,60.7,29.98,WNW,298,1.1,1.1,86,0.02,CLR,,0.02,WeatherDisplay:10.37,2013-05-03 01:29:00,
2013-05-02 20:34:00,64.8,60.5,29.99,WNW,298,2.3,2.3,86,0.02,CLR,,0.02,WeatherDisplay:10.37,2013-05-03 01:34:00,
2013-05-02 20:39:00,64.6,60.6,29.99,WNW,298,3.5,3.5,87,0.02,CLR,,0.02,WeatherDisplay:10.37,2013-05-03 01:39:00,
2013-05-02 20:44:00,64.4,60.4,29.99,WNW,298,0.0,0.0,87,0.02,CLR,,0.02,WeatherDisplay:10.37,2013-05-03 01:44:00,
2013-05-02 20:49:00,64.4,60.4,29.99,WNW,298,0.0,0.0,87,0.03,RA,,0.03,WeatherDisplay:10.37,2013-05-03 01:49:00,
2013-05-02 20:54:00,64.3,60.7,29.99,WNW,298,0.0,0.0,88,0.03,RA,,0.03,WeatherDisplay:10.37,2013-05-03 01:54:00,
2013-05-02 20:59:00,64.2,60.6,29.99,WNW,298,0.0,0.0,88,0.03,CLR,,0.03,WeatherDisplay:10.37,2013-05-03 01:59:00,
2013-05-02 21:04:00,64.1,60.5,29.99,WNW,298,0.0,0.0,88,0.02,CLR,,0.03,WeatherDisplay:10.37,2013-05-03 02:04:00,
2013-05-02 21:09:00,64.0,60.7,29.99,WNW,298,0.0,0.0,89,0.02,CLR,,0.03,WeatherDisplay:10.37,2013-05-03 02:09:00,
2013-05-02 21:14:00,63.8,60.5,29.99,WNW,298,0.0,0.0,89,0.01,CLR,,0.03,WeatherDisplay:10.37,2013-05-03 02:14:00,
2013-05-02 21:19:00,63.8,60.5,29.99,WNW,298,2.3,2.3,89,0.01,CLR,,0.03,WeatherDisplay:10.37,2013-05-03 02:19:00,
2013-05-02 21:24:00,63.6,60.6,29.99,WNW,298,1.0,1.0,90,0.01,CLR,,0.03,WeatherDisplay:10.37,2013-05-03 02:24:00,
2013-05-02 21:29:00,63.5,60.5,29.99,WNW,297,2.3,2.3,90,0.01,CLR,,0.03,WeatherDisplay:10.37,2013-05-03 02:29:00,
2013-05-02 21:34:00,63.4,60.7,30.00,WNW,297,1.0,0.0,91,0.01,CLR,,0.03,WeatherDisplay:10.37,2013-05-03 02:34:00,
2013-05-02 21:39:00,63.5,60.8,30.01,WNW,297,0.0,0.0,91,0.03,RA,,0.06,WeatherDisplay:10.37,2013-05-03 02:39:00,
2013-05-02 21:44:00,63.5,60.8,30.00,WNW,297,0.0,0.0,91,0.06,RA,,0.09,WeatherDisplay:10.37,2013-05-03 02:44:00,
2013-05-02 21:49:00,63.4,60.7,30.00,WNW,297,0.0,0.0,91,0.06,RA,,0.09,WeatherDisplay:10.37,2013-05-03 02:49:00,
2013-05-02 21:54:00,63.3,60.6,30.01,WNW,297,0.0,0.0,91,0.07,RA,,0.10,WeatherDisplay:10.37,2013-05-03 02:54:00,
2013-05-02 21:59:00,63.2,60.5,30.01,WNW,297,0.0,0.0,91,0.07,RA,,0.10,WeatherDisplay:10.37,2013-05-03 02:59:00,
2013-05-02 22:04:00,63.1,60.7,30.01,WNW,297,0.0,0.0,92,0.07,,,0.10,WeatherDisplay:10.37,2013-05-03 03:04:00,
2013-05-02 22:09:00,63.0,60.6,30.00,WNW,297,0.0,0.0,92,0.07,CLR,,0.10,WeatherDisplay:10.37,2013-05-03 03:09:00,
2013-05-02 22:14:00,63.2,61.1,30.00,WNW,297,0.0,0.0,93,0.07,CLR,,0.10,WeatherDisplay:10.37,2013-05-03 03:14:00,
2013-05-02 22:19:00,63.2,61.1,30.00,WNW,297,0.0,0.0,93,0.07,CLR,,0.10,WeatherDisplay:10.37,2013-05-03 03:19:00,
2013-05-02 22:24:00,63.1,60.7,30.01,WNW,297,0.0,0.0,92,0.07,CLR,,0.10,WeatherDisplay:10.37,2013-05-03 03:24:00,
2013-05-02 22:29:00,62.9,60.5,30.00,WNW,297,0.0,0.0,92,0.07,CLR,,0.10,WeatherDisplay:10.37,2013-05-03 03:29:00,
2013-05-02 22:34:00,62.7,60.3,30.00,WNW,297,0.0,0.0,92,0.07,CLR,,0.10,WeatherDisplay:10.37,2013-05-03 03:34:00,
2013-05-02 22:39:00,62.6,60.5,30.00,WNW,297,0.0,0.0,93,0.05,CLR,,0.10,WeatherDisplay:10.37,2013-05-03 03:39:00,
2013-05-02 22:44:00,62.5,60.4,29.99,WNW,297,0.0,0.0,93,0.02,CLR,,0.10,WeatherDisplay:10.37,2013-05-03 03:44:00,
2013-05-02 22:49:00,62.3,60.2,30.00,WNW,297,1.1,0.0,93,0.01,CLR,,0.10,WeatherDisplay:10.37,2013-05-03 03:49:00,
2013-05-02 22:54:00,62.2,60.2,29.99,WNW,297,0.0,0.0,93,0.00,CLR,,0.10,WeatherDisplay:10.37,2013-05-03 03:54:00,
2013-05-02 22:59:00,62.1,60.1,29.99,WNW,297,0.0,0.0,93,0.00,CLR,,0.10,WeatherDisplay:10.37,2013-05-03 03:59:00,
2013-05-02 23:01:00,62.1,60.1,29.99,WNW,297,0.0,0.0,93,0.00,CLR,,0.10,WeatherDisplay:10.37,2013-05-03 04:01:00,
2013-05-02 23:06:00,62.0,60.0,29.99,WNW,297,1.1,1.1,93,0.00,CLR,,0.10,WeatherDisplay:10.37,2013-05-03 04:06:00,
2013-05-02 23:11:00,61.9,59.9,29.99,WNW,298,1.1,0.0,93,0.00,CLR,,0.10,WeatherDisplay:10.37,2013-05-03 04:11:00,
2013-05-02 23:16:00,61.9,60.2,29.98,WNW,298,1.1,0.0,94,0.00,CLR,,0.10,WeatherDisplay:10.37,2013-05-03 04:16:00,
2013-05-02 23:21:00,61.7,59.7,29.98,North,10,2.3,2.3,93,0.00,CLR,,0.10,WeatherDisplay:10.37,2013-05-03 04:21:00,
2013-05-02 23:26:00,61.6,59.9,29.98,North,5,2.3,2.3,94,0.00,CLR,,0.10,WeatherDisplay:10.37,2013-05-03 04:26:00,
2013-05-02 23:31:00,61.4,59.7,29.98,North,5,2.3,2.3,94,0.00,CLR,,0.10,WeatherDisplay:10.37,2013-05-03 04:31:00,
2013-05-02 23:36:00,61.3,59.6,29.98,NNW,339,1.1,1.1,94,0.00,CLR,,0.10,WeatherDisplay:10.37,2013-05-03 04:36:00,
2013-05-02 23:41:00,61.3,59.6,29.98,North,355,1.1,1.1,94,0.00,CLR,,0.10,WeatherDisplay:10.37,2013-05-03 04:41:00,
2013-05-02 23:46:00,61.3,59.6,29.98,North,5,0.0,0.0,94,0.00,CLR,,0.10,WeatherDisplay:10.37,2013-05-03 04:46:00,
2013-05-02 23:51:00,61.2,59.5,29.97,NNE,20,1.1,1.1,94,0.00,CLR,,0.10,WeatherDisplay:10.37,2013-05-03 04:51:00,
2013-05-02 23:56:00,61.0,59.3,29.97,North,355,2.3,2.3,94,0.00,CLR,,0.10,WeatherDisplay:10.37,2013-05-03 04:56:00,